Wind_Speed
32 32 32 31 31 31 31 30 30 30 29 28 27 25 24 22 21 20 19 19 19 18 17 16 16 15 13 12 11 9 8 7 7 6 5 5 4 5 6 7 8 8 7 7 6 7 7 7 7 7 6 6 6 7 7 8 9 10 10 10 10 9 14 17 17 18 20 23 23 23 23 23 25 27 30 35 38 41 42 43 43 43 43 42 43 46 47 46
35 34 34 34 33 34 33 33 33 32 31 31 29 28 27 25 24 23 22 22 21 21 20 20 19 19 17 16 14 13 12 11 10 9 7 7 7 6 7 7 8 9 9 8 8 8 8 8 7 7 7 7 7 7 8 9 9 10 10 10 12 10 11 15 17 19 20 21 21 20 19 17 19 22 23 25 29 34 37 38 40 41 41 42 43 45 44 44
38 38 37 37 36 36 36 36 35 35 34 33 32 31 29 28 26 25 25 25 24 24 23 22 22 22 21 20 18 17 16 14 14 13 10 10 10 8 9 10 10 9 9 9 9 9 9 9 9 8 8 7 7 8 8 9 9 9 10 9 10 11 13 16 19 19 19 19 19 17 16 15 16 18 19 19 21 24 27 30 32 34 35 36 38 40 40 40
41 40 40 40 39 39 39 38 38 37 37 36 35 34 32 30 29 28 28 27 27 26 26 25 24 25 25 24 22 21 20 18 18 16 14 13 12 11 11 12 12 11 10 10 10 11 11 10 10 10 10 9 9 9 8 9 9 9 10 9 8 12 15 17 18 17 17 17 16 15 14 14 15 17 16 16 17 18 20 22 24 24 24 26 31 35 37 36
44 43 43 42 42 42 41 41 41 40 39 38 37 36 35 33 32 31 30 30 30 29 28 27 27 27 27 27 25 24 23 22 21 20 18 17 16 15 14 14 14 14 13 12 12 13 13 12 12 13 12 11 11 11 11 10 11 10 11 11 11 13 14 16 17 15 15 15 15 14 13 14 15 15 15 15 15 16 18 19 19 18 18 22 27 31 32 31
46 46 45 45 45 44 44 43 43 42 41 41 40 39 38 36 34 33 32 32 32 32 31 30 29 29 29 29 28 27 26 25 23 22 21 21 20 18 16 16 17 17 16 14 14 14 15 15 15 15 14 14 14 14 13 12 12 12 13 13 13 14 14 16 16 14 14 14 14 14 13 14 14 14 14 14 14 15 16 17 17 15 15 21 25 27 27 26
48 48 48 47 47 46 46 45 45 44 43 43 42 41 40 39 37 36 35 34 34 33 33 32 31 31 31 31 31 30 29 27 25 24 24 24 23 21 20 19 19 20 19 17 16 15 16 17 17 16 16 16 17 16 15 14 14 14 14 14 14 15 15 16 17 15 14 15 15 15 14 14 15 15 14 15 16 16 16 16 14 13 15 18 21 24 23 22
49 49 49 48 48 48 48 47 46 46 45 45 44 43 42 41 40 38 37 36 35 35 35 34 33 32 32 33 33 32 31 29 27 27 27 27 26 24 23 22 22 22 21 20 18 17 18 19 18 18 18 18 20 19 17 16 15 16 16 15 15 15 16 17 17 17 16 15 16 16 15 15 16 16 15 15 17 17 17 16 12 12 15 16 18 21 19 18
50 50 50 50 49 50 49 49 48 48 47 46 46 45 44 43 42 40 39 38 37 36 36 36 35 34 33 34 34 34 33 31 29 29 28 29 29 28 27 25 25 24 24 22 21 20 20 20 19 19 19 21 23 21 19 18 18 18 17 16 16 16 17 17 18 19 18 16 16 16 16 16 16 16 16 16 17 18 17 16 14 11 13 15 17 19 17 16
51 51 51 51 51 52 51 51 50 49 49 48 47 46 45 44 43 42 41 39 39 38 37 37 36 35 35 35 36 36 36 33 30 30 31 31 31 31 30 28 27 27 26 25 23 23 23 21 19 20 23 25 25 23 22 21 21 20 18 17 17 17 17 18 19 20 19 18 17 17 17 17 17 17 16 16 18 18 17 17 14 11 12 15 16 17 18 17
54 54 53 53 53 53 53 52 51 50 50 49 48 47 46 45 44 43 42 41 40 39 39 38 37 37 36 36 37 38 38 34 32 32 33 33 33 33 32 31 30 29 29 27 26 26 24 22 21 23 27 27 27 26 25 25 25 22 20 19 19 19 18 19 20 21 21 20 19 18 18 18 17 17 16 17 18 18 17 16 14 12 13 14 14 15 17 18
56 55 55 54 54 54 54 53 52 51 50 49 48 48 47 46 45 45 44 43 42 41 40 39 39 39 38 38 38 40 40 36 35 35 35 36 35 34 34 34 33 32 31 30 30 28 26 25 24 27 29 29 28 28 28 28 27 24 22 21 21 20 20 20 21 22 23 22 21 20 19 18 16 17 16 16 18 17 17 16 13 13 13 12 12 12 13 15
57 56 55 55 54 55 54 53 52 51 50 50 49 49 48 47 47 46 45 45 44 43 42 41 41 40 41 40 39 42 42 38 38 37 37 38 37 36 36 35 35 35 34 33 32 31 29 28 28 29 29 30 29 30 31 30 29 28 26 24 24 22 21 22 23 24 24 23 23 21 20 19 16 16 16 16 16 15 15 15 13 13 13 12 12 11 10 11
57 56 56 55 55 55 55 54 53 52 52 51 51 51 50 49 49 48 48 47 46 46 45 44 44 42 43 42 40 44 44 41 41 40 39 40 40 38 37 37 37 37 37 36 35 34 33 32 31 30 30 32 31 33 35 32 32 32 29 28 27 25 23 24 25 25 26 25 24 23 22 20 17 16 15 14 13 11 13 14 12 13 13 13 12 11 9 9
59 59 58 58 57 58 57 57 56 55 54 54 54 53 53 52 52 51 51 50 49 49 48 47 46 46 46 44 43 46 46 44 43 42 42 43 42 41 39 39 39 39 39 39 38 37 37 35 34 32 32 34 33 36 36 33 35 35 32 32 30 27 26 27 27 26 27 26 25 25 23 21 17 16 14 12 10 9 11 12 11 12 13 13 11 10 9 7
62 62 61 61 61 61 61 60 60 59 58 58 57 57 57 56 55 55 54 54 53 53 52 51 50 49 49 47 46 47 48 47 45 44 45 45 43 43 42 41 40 41 41 41 41 40 40 39 37 35 35 35 35 38 37 35 38 38 37 35 32 31 29 29 29 27 28 27 27 26 24 21 19 16 14 12 9 8 9 10 10 10 11 12 10 9 9 8
66 66 65 65 64 65 65 64 64 63 62 62 61 61 60 59 59 59 58 57 57 56 55 54 54 53 52 51 48 49 51 49 47 48 48 46 45 45 45 44 43 42 42 43 43 43 42 41 40 38 37 37 38 40 37 37 41 42 41 38 36 35 31 31 32 29 29 28 27 28 26 23 21 17 14 12 10 9 10 9 9 9 11 13 10 7 9 9
69 69 69 68 68 68 68 68 68 68 67 66 66 65 65 64 63 62 62 61 61 60 59 58 58 57 56 55 52 52 54 51 50 51 50 48 47 47 47 46 45 44 45 46 45 44 43 43 42 41 40 40 40 40 39 43 45 43 44 41 38 36 32 34 36 32 30 29 28 29 26 25 23 20 15 13 13 12 10 7 7 9 11 12 10 8 10 11
72 72 71 71 71 70 71 71 70 70 70 69 69 69 68 67 66 65 65 65 64 63 62 60 61 60 58 58 56 54 55 55 53 52 51 50 50 49 49 48 48 47 47 48 47 46 46 45 44 44 43 43 43 43 44 47 45 43 45 43 40 37 35 37 39 35 32 31 29 28 27 26 24 22 18 15 14 13 12 8 7 9 11 11 11 10 10 12
75 75 74 74 73 73 73 73 72 72 72 72 71 71 71 70 69 67 67 68 66 65 64 63 64 63 60 61 59 56 58 58 55 54 53 52 52 51 50 49 49 49 50 51 49 48 47 46 47 47 46 46 45 45 46 47 44 43 45 44 42 39 37 38 40 37 35 33 30 29 28 27 25 23 20 18 15 14 12 10 8 7 10 12 13 14 12 11
79 78 78 77 77 76 76 76 75 75 74 74 74 73 72 73 72 70 69 70 68 68 66 65 66 65 64 63 61 60 59 58 57 56 55 54 54 53 52 52 52 52 53 53 51 50 49 49 51 50 48 47 46 45 45 46 44 43 44 44 42 40 38 38 40 41 38 35 32 29 29 29 27 25 23 20 17 15 12 10 9 6 9 13 13 15 14 12
81 82 82 82 81 80 80 80 79 78 78 77 77 76 75 75 75 73 72 72 71 70 68 68 67 67 67 65 64 63 60 59 59 59 58 57 56 55 55 55 54 55 56 53 51 51 51 54 54 51 49 47 46 45 44 45 45 44 45 44 42 41 40 40 41 42 41 38 35 32 30 30 28 26 25 22 19 17 13 10 9 8 10 14 14 16 14 12
82 82 83 83 83 83 83 83 83 82 82 81 81 80 80 78 78 77 75 74 75 74 71 71 70 70 71 68 66 66 62 60 62 61 61 60 57 58 58 57 57 58 56 53 53 54 55 57 54 50 49 46 45 44 43 44 45 45 46 44 43 44 44 42 42 44 45 41 37 34 32 31 30 28 26 23 21 20 16 13 12 12 14 17 18 18 15 13
83 83 83 84 84 83 83 84 84 84 84 83 83 83 83 82 81 80 78 77 78 78 76 75 74 74 75 73 70 68 65 65 64 63 64 62 60 61 60 60 61 59 56 56 56 56 57 57 53 50 48 46 44 43 42 44 45 47 47 45 44 46 46 44 44 47 46 41 38 37 36 33 31 30 28 25 23 22 19 16 15 14 15 17 19 18 15 14
84 85 85 85 85 85 84 84 85 84 84 84 84 84 84 84 83 82 81 79 78 81 81 79 78 77 78 76 73 71 71 69 67 66 67 66 64 63 63 63 62 59 58 59 58 57 56 55 52 50 49 46 44 42 43 44 45 47 46 44 45 45 43 44 46 46 44 42 42 40 37 35 34 32 29 26 25 25 21 19 17 15 14 16 17 16 15 16
88 88 87 87 87 87 86 86 86 85 85 85 84 85 85 84 84 83 82 81 79 81 83 82 80 79 80 78 76 76 74 71 70 70 69 69 67 66 65 64 63 61 60 60 58 55 54 53 51 50 48 45 43 43 44 44 44 45 44 43 44 42 39 41 43 42 43 46 46 41 36 37 37 34 31 29 28 27 23 21 19 16 15 16 17 16 19 22
92 92 92 91 91 91 90 89 88 88 87 86 85 85 86 85 85 85 84 84 83 82 83 84 82 79 79 79 78 78 74 71 73 72 68 69 69 67 65 63 62 60 60 60 56 52 53 52 51 51 49 46 44 45 45 43 42 42 42 41 40 39 37 39 41 39 42 47 45 38 36 38 38 36 35 33 31 28 26 23 20 18 17 17 17 17 21 25
95 95 95 95 94 94 94 93 92 92 90 89 88 87 87 86 86 86 86 86 86 84 83 85 84 81 79 79 80 79 75 72 73 72 69 69 69 68 65 62 61 61 61 60 55 54 55 53 53 54 49 45 45 46 43 39 39 40 40 38 37 37 35 37 38 37 40 43 38 35 37 40 41 40 39 36 32 30 29 24 21 20 18 17 18 18 20 22
94 95 95 96 96 95 95 95 95 95 94 93 92 91 90 89 88 89 88 88 88 85 84 86 86 84 82 81 82 82 78 74 74 73 71 69 69 68 65 63 64 63 62 60 57 57 56 53 54 53 46 44 46 44 40 38 40 40 39 37 37 36 35 36 36 36 39 37 32 34 39 41 43 43 41 38 35 34 31 27 23 22 20 19 18 17 19 20
92 92 93 93 93 94 94 94 94 95 95 94 94 93 92 92 92 92 92 91 90 88 85 85 86 86 85 84 83 83 81 78 75 75 74 71 71 70 67 67 66 64 63 61 59 58 56 54 55 51 46 47 46 42 40 41 42 41 39 38 37 34 34 35 35 37 37 33 33 39 42 43 45 46 43 41 40 38 34 30 25 24 24 22 18 16 19 21
92 92 92 92 92 92 92 92 92 92 92 93 93 93 93 93 94 95 94 94 94 92 88 87 86 86 87 86 85 83 83 81 78 77 77 74 74 72 69 68 66 64 63 61 60 60 58 57 54 51 51 51 47 42 43 44 44 41 39 38 35 32 32 33 34 35 34 36 43 47 48 47 47 49 47 46 46 41 36 32 28 27 27 23 21 19 20 22
93 94 93 93 93 93 93 92 92 91 91 91 91 91 91 92 93 94 96 97 100 97 91 88 86 87 87 87 87 86 84 84 81 79 79 77 76 74 70 68 67 66 64 62 62 62 61 59 55 54 55 53 47 44 45 46 44 40 39 37 33 31 31 32 33 34 35 40 46 48 48 47 49 54 51 48 48 42 37 34 31 31 29 25 22 19 21 24
94 94 94 94 94 94 94 93 93 93 92 91 91 91 91 91 91 92 96 100 100 96 91 89 87 88 89 90 92 90 88 87 85 83 81 79 77 75 72 71 70 68 67 67 66 65 64 61 56 54 55 52 48 45 45 46 44 41 40 38 34 32 33 33 33 34 36 40 42 43 44 44 51 56 50 46 48 43 39 37 34 32 30 25 21 19 22 24
94 94 94 94 94 94 93 93 93 92 92 92 92 92 92 92 91 93 98 99 94 90 89 90 89 91 93 94 95 94 91 90 87 85 84 82 79 77 74 73 71 69 70 70 67 66 64 60 55 55 55 53 50 48 47 49 46 43 43 40 34 32 33 33 33 35 36 36 36 36 40 44 51 53 47 46 49 45 40 38 35 33 29 25 23 22 23 23
93 94 94 93 93 93 92 93 93 92 92 91 91 91 91 92 94 98 100 95 89 86 86 88 91 94 96 97 97 95 94 93 91 88 87 85 82 79 77 75 73 72 72 71 68 65 64 60 58 59 59 56 53 51 51 50 47 44 43 39 33 32 34 34 34 34 34 33 32 34 38 43 47 49 46 47 48 45 41 38 36 34 30 26 26 25 24 24
94 95 95 94 93 92 92 92 92 92 92 91 91 91 91 92 95 98 97 91 87 86 86 89 92 94 96 99 99 98 97 98 95 91 89 88 86 83 81 79 77 76 74 72 70 66 64 63 62 62 61 56 53 53 52 50 47 44 41 39 37 36 35 34 34 33 33 33 34 36 38 40 43 46 48 48 48 45 42 39 38 36 32 29 28 27 24 24
97 98 99 99 98 96 95 95 94 95 94 95 94 93 94 95 94 93 91 89 87 86 89 94 95 93 94 98 99 99 100 99 96 94 92 91 90 88 85 83 82 80 77 75 73 69 67 67 65 63 62 58 56 56 54 51 48 43 41 41 39 35 32 33 33 33 33 34 36 38 37 38 42 47 49 49 48 45 42 40 39 38 35 31 30 28 25 25
101 101 103 104 103 101 100 99 99 99 100 100 101 100 101 100 96 90 86 84 85 87 92 97 97 95 95 97 98 96 96 98 98 97 95 94 94 92 89 87 85 81 79 77 74 70 67 68 67 65 64 62 60 60 56 51 47 43 42 42 36 32 32 34 34 34 35 37 39 40 38 38 42 47 49 50 48 45 43 42 41 40 36 33 32 30 28 28
101 101 101 101 100 98 97 97 97 98 99 101 104 105 106 105 101 94 88 87 87 88 92 96 98 97 97 98 98 92 91 97 99 97 98 98 98 96 92 90 86 82 80 78 73 70 68 70 70 68 67 67 65 61 55 49 47 45 43 40 35 33 35 36 37 36 36 38 40 40 37 38 43 44 44 47 48 48 47 44 42 41 38 36 35 32 30 29
97 95 94 92 90 87 85 86 87 88 90 93 97 101 104 106 105 101 96 94 92 90 91 94 97 97 97 99 97 91 90 96 96 96 100 103 100 96 93 90 86 82 81 78 74 74 73 72 73 70 69 70 66 58 53 51 50 48 45 41 38 36 37 38 38 36 35 37 39 40 37 35 39 40 40 43 47 48 48 46 45 44 41 38 36 33 31 30
88 86 85 82 79 76 74 73 74 75 78 81 85 90 95 100 104 104 102 99 96 95 94 95 95 96 97 98 96 92 92 94 93 95 101 104 100 96 92 89 85 82 82 79 78 79 77 74 77 73 68 68 64 58 57 56 54 52 48 45 43 42 42 41 38 35 35 36 39 41 36 30 32 36 38 41 45 47 49 48 46 44 42 40 39 36 34 32
78 77 76 74 71 68 66 65 64 65 67 69 72 77 82 88 95 100 102 102 102 102 101 100 98 97 97 98 95 93 94 95 94 96 100 102 99 95 91 89 86 83 83 82 82 83 80 77 79 76 69 69 68 64 62 60 57 55 51 48 48 47 46 43 39 37 36 37 41 41 36 32 33 35 37 39 43 46 49 48 47 45 44 44 42 40 38 35
70 68 68 68 65 62 61 59 58 58 59 61 63 67 71 76 84 91 97 101 104 105 105 106 104 100 98 97 95 93 93 95 96 96 99 100 96 90 89 89 88 87 86 86 87 88 84 78 79 78 71 71 73 70 66 63 59 55 51 49 49 47 46 45 42 40 39 40 42 40 36 36 37 36 36 38 40 44 48 49 49 49 48 47 46 44 41 37
62 60 60 61 60 57 56 55 54 54 54 55 57 60 63 67 73 81 89 96 100 103 105 107 107 105 100 97 94 91 92 94 96 98 100 100 94 88 87 90 91 91 91 91 90 87 82 77 79 79 74 73 75 72 67 63 56 52 52 50 49 48 49 48 45 42 41 41 41 41 38 36 36 36 38 38 39 42 46 49 51 51 51 51 49 46 43 41
56 54 54 55 53 52 50 50 50 50 49 50 52 54 57 60 64 71 80 88 95 100 103 105 107 107 104 100 95 93 92 93 96 100 102 101 94 88 89 91 91 92 92 91 89 85 81 79 80 80 75 72 73 70 65 61 56 54 54 52 50 50 50 49 47 44 43 41 39 40 39 36 35 37 39 39 39 41 43 47 51 52 52 52 50 47 46 46
51 49 49 50 49 48 46 43 44 46 45 45 47 49 52 55 59 65 73 81 89 96 101 103 106 108 107 104 99 96 95 95 97 101 101 98 94 90 91 91 91 91 91 90 90 87 85 83 81 79 76 74 75 73 69 64 61 58 56 55 53 51 50 50 48 45 45 42 39 39 40 38 38 39 39 39 39 40 42 46 50 53 54 54 52 50 50 48
48 45 44 46 45 45 44 40 38 41 42 41 43 45 48 51 55 60 66 74 83 90 96 100 104 107 108 106 103 100 98 98 99 100 99 97 94 91 90 90 90 89 90 92 91 89 87 86 82 81 81 79 78 75 70 65 62 61 59 58 56 53 52 51 48 47 47 44 41 40 41 40 40 40 39 38 39 40 41 44 48 52 54 55 55 54 51 49
47 43 40 41 41 41 42 39 35 36 38 38 39 41 44 48 52 56 61 68 76 84 91 96 101 105 107 107 106 104 103 102 100 98 96 93 91 88 88 90 91 91 92 93 91 89 88 86 84 83 84 82 78 75 70 65 64 64 62 60 58 55 53 52 50 50 50 46 43 42 40 41 42 42 39 37 38 39 40 41 44 49 53 55 56 55 54 52
46 44 40 39 38 37 38 37 33 33 34 34 35 38 41 44 48 52 57 63 70 78 85 92 98 103 106 106 106 107 107 106 103 98 94 89 86 86 89 93 95 94 94 93 91 89 87 86 87 87 87 84 78 75 72 68 66 66 63 61 59 56 54 55 54 54 52 49 47 45 42 42 44 44 39 37 37 37 38 38 41 45 50 53 56 56 56 55
43 43 40 39 37 34 34 35 32 31 32 31 32 34 37 41 45 49 54 59 66 72 80 87 94 100 104 105 106 108 110 109 105 99 92 87 85 87 92 97 97 94 93 92 91 89 89 90 90 87 85 81 76 73 73 70 68 69 67 64 61 59 57 57 57 56 55 53 50 48 46 45 47 46 41 37 37 36 36 38 39 41 45 50 54 56 56 55
40 40 38 37 35 32 31 32 30 29 30 29 29 31 34 37 41 46 51 56 61 68 74 81 89 95 101 104 106 109 111 111 107 100 92 88 87 89 92 94 93 90 90 89 88 90 92 91 87 84 82 80 76 74 74 72 72 72 70 66 63 61 59 59 59 59 58 55 53 51 50 48 50 50 44 39 38 36 36 38 38 38 40 45 51 54 55 55
37 37 35 34 32 29 28 30 29 27 27 27 27 28 30 34 38 42 47 52 58 64 70 76 83 90 97 102 105 108 110 110 109 103 95 90 88 88 90 90 89 88 89 89 88 90 91 88 84 83 82 82 80 77 77 78 76 73 70 67 66 65 63 62 61 61 60 57 54 53 53 52 52 52 46 41 39 38 37 38 38 37 37 39 44 50 54 55
Wind_Direction
251 252 253 253 254 253 254 255 255 256 256 256 255 255 255 254 253 251 249 247 245 243 241 239 236 232 223 215 211 211 212 217 212 189 195 219 206 208 209 206 214 218 221 223 220 217 219 220 220 221 222 220 221 220 223 225 226 228 227 225 229 249 266 270 271 272 275 277 276 275 276 279 278 274 270 266 264 263 264 264 265 265 266 265 265 265 265 266
251 251 252 252 253 253 254 254 255 256 257 257 256 255 255 255 255 254 252 250 247 244 242 241 240 239 234 227 221 218 217 221 224 208 205 226 220 221 231 226 222 221 223 226 228 228 226 228 229 230 229 227 226 224 225 226 229 232 230 226 229 249 272 271 271 272 271 272 273 274 277 285 286 281 277 272 268 266 266 266 265 265 266 267 268 268 267 266
250 251 251 251 252 253 254 255 256 257 257 258 257 256 255 255 255 255 255 254 250 247 244 242 242 242 240 237 231 227 224 224 228 220 212 226 229 225 235 238 234 228 227 229 232 233 232 233 237 238 237 236 235 232 231 229 230 234 236 231 231 246 260 263 267 272 272 273 276 278 284 291 290 289 288 284 279 274 272 270 269 268 268 269 269 268 267 266
250 251 251 252 253 253 254 255 256 257 258 258 258 258 257 256 255 255 255 255 253 251 247 244 243 243 243 241 238 235 232 229 231 229 222 226 232 233 234 239 241 237 232 232 235 238 238 238 241 245 243 242 244 243 241 238 238 241 241 233 229 242 253 260 265 271 275 277 282 287 294 296 295 295 297 296 294 288 283 280 277 274 271 271 270 269 267 266
251 252 252 253 254 255 255 256 257 258 259 259 259 259 258 256 255 255 255 254 254 253 250 247 244 244 244 244 242 239 238 236 235 236 234 232 233 234 235 238 244 244 239 233 234 239 242 241 244 247 249 248 249 249 248 246 245 245 246 240 240 246 251 259 266 272 277 281 286 290 295 296 295 293 294 301 302 294 291 285 280 278 274 273 272 271 269 266
253 254 254 255 256 256 257 258 258 259 260 260 260 260 259 257 255 255 254 254 253 253 252 250 247 246 245 245 243 241 240 239 240 241 241 239 236 236 236 238 242 246 245 239 234 238 244 244 245 248 251 252 252 252 251 250 251 249 249 249 252 257 258 261 269 274 278 284 289 291 293 295 295 294 294 302 307 302 297 289 286 285 277 273 273 271 268 263
255 255 256 257 257 258 258 259 259 260 260 260 260 260 259 258 257 255 254 253 252 252 252 251 249 247 246 245 245 243 241 240 241 244 245 245 243 240 239 239 240 243 246 245 240 238 242 246 248 251 253 256 255 253 251 250 253 255 254 255 258 263 266 268 274 277 280 288 292 294 297 300 302 301 301 308 315 314 307 300 298 295 287 280 274 272 267 258
256 256 257 258 258 259 259 260 260 260 260 260 260 260 259 259 258 256 254 252 251 251 251 250 249 247 247 246 246 244 243 241 240 243 247 250 249 246 243 242 242 243 245 246 245 241 240 246 251 253 255 258 257 255 254 254 254 255 257 259 262 266 270 274 278 280 283 289 294 298 301 305 305 304 307 315 322 320 313 307 303 298 296 292 279 274 267 252
257 257 258 258 259 259 260 260 260 261 261 261 261 260 259 259 258 256 254 252 251 249 249 249 248 247 246 246 247 246 245 242 240 242 246 249 252 252 249 246 245 246 246 246 247 246 244 246 249 254 255 254 256 258 258 258 256 256 258 261 264 267 272 277 280 282 284 288 294 299 301 304 305 306 310 319 325 323 316 309 308 307 306 302 288 275 265 252
258 258 258 259 259 260 260 260 261 261 261 261 260 260 259 258 257 256 254 252 250 249 247 247 247 246 245 244 246 247 246 244 242 242 245 247 250 253 254 252 251 250 250 249 248 247 248 248 247 250 252 251 256 260 260 260 258 257 258 261 265 268 272 277 281 282 284 287 291 294 297 301 306 309 314 322 327 324 318 313 312 317 316 307 292 274 261 252
259 260 260 260 261 261 261 261 261 261 261 260 260 260 259 258 257 255 254 252 250 248 247 245 244 244 243 243 244 246 247 245 244 243 245 246 247 251 254 255 255 254 254 253 250 248 249 249 245 244 248 252 256 259 259 259 259 259 259 262 264 267 272 276 279 282 284 286 288 291 294 300 307 313 318 325 328 325 320 317 316 321 321 315 302 279 261 251
260 260 261 261 261 261 261 260 260 260 260 260 259 259 258 257 256 255 254 252 250 249 247 245 243 243 242 242 243 246 247 245 245 244 245 247 247 249 252 254 255 255 255 254 253 251 249 247 243 242 246 251 255 259 258 257 261 263 261 261 262 264 268 273 277 280 282 284 287 289 293 298 307 313 318 325 328 327 325 322 320 320 320 314 303 285 264 251
260 260 260 261 261 261 260 260 260 259 259 259 259 258 258 257 256 255 253 252 251 249 247 245 244 243 242 242 242 246 247 244 244 245 246 248 249 249 250 252 254 255 255 255 254 253 251 248 244 244 248 251 254 258 258 258 262 263 262 262 262 262 265 270 273 276 278 281 284 287 290 294 301 309 315 324 327 329 328 323 316 314 312 304 296 283 264 248
260 260 260 260 260 260 260 259 259 258 258 258 258 258 257 257 256 255 254 253 252 251 249 247 245 244 244 242 243 247 247 245 245 245 246 248 249 249 249 250 251 253 254 255 255 254 253 250 248 247 248 251 253 255 258 260 262 263 263 262 261 261 263 266 268 271 275 279 283 284 286 289 296 305 312 319 323 326 324 318 312 310 306 300 294 283 264 243
261 260 260 260 260 260 260 259 259 258 258 257 257 257 257 256 256 256 255 254 253 252 251 249 248 246 246 244 243 247 249 247 247 246 247 248 249 250 249 249 250 252 253 254 255 254 254 253 251 250 248 251 253 255 258 261 262 263 262 260 260 260 260 262 263 267 272 275 278 280 282 286 292 298 303 310 313 315 315 313 310 308 304 299 292 282 265 240
261 261 261 260 260 260 260 260 260 259 258 258 257 257 257 257 256 256 256 255 255 254 253 252 251 249 248 247 245 248 250 249 248 248 247 247 249 250 250 249 250 251 252 253 254 254 255 255 254 253 252 253 254 255 260 262 262 263 261 260 260 260 259 260 261 263 267 270 273 276 279 282 284 287 293 300 300 298 305 306 301 299 295 290 284 280 270 240
261 261 261 261 261 261 261 260 260 260 259 259 258 258 257 257 257 257 256 256 256 255 255 254 253 252 251 250 248 249 250 250 249 249 248 248 249 249 250 250 250 251 252 252 253 254 255 256 256 255 254 255 255 258 262 261 259 260 261 261 261 261 259 259 260 259 261 265 269 272 275 277 278 279 283 290 288 288 302 303 298 299 289 280 274 267 266 251
261 261 261 261 261 261 261 261 261 261 260 259 259 259 258 257 257 257 257 257 256 256 256 255 255 254 253 252 250 250 251 250 249 249 250 250 249 249 250 251 250 250 251 252 252 254 255 255 256 256 256 256 257 258 258 256 257 259 262 263 263 262 260 258 258 256 256 259 262 267 271 272 273 274 274 277 276 282 297 298 286 281 271 266 265 254 258 260
262 261 261 261 260 260 260 260 260 260 260 260 259 259 259 258 257 257 257 257 256 256 256 256 256 254 254 254 252 251 252 251 250 250 250 250 249 250 250 250 250 250 250 252 252 253 254 255 256 257 256 256 256 257 257 258 261 262 263 264 262 260 257 257 256 254 254 253 255 261 265 266 268 269 267 266 267 277 289 293 283 267 262 264 261 251 246 256
263 262 261 261 260 260 260 260 260 260 260 259 259 259 259 258 257 257 257 257 256 256 255 255 255 255 254 254 253 251 252 252 251 250 250 250 250 250 250 250 250 250 250 251 252 253 255 256 257 256 256 257 258 259 260 262 264 262 261 261 260 257 253 254 257 256 253 250 250 254 258 260 262 264 264 262 263 270 276 286 294 275 267 267 256 246 235 235
263 263 262 261 260 259 259 259 259 259 258 259 258 258 258 258 258 257 256 257 256 255 255 254 255 255 253 253 253 251 251 252 252 250 250 249 250 250 250 250 250 250 250 252 253 255 256 256 256 256 257 259 260 261 261 262 261 259 258 257 256 255 250 250 254 254 252 249 247 248 252 254 256 257 259 260 260 263 266 274 285 271 253 253 247 247 236 218
264 263 262 262 261 260 259 259 258 258 258 258 258 257 257 257 257 257 256 257 256 255 255 254 254 254 253 252 252 251 250 251 251 251 250 249 249 250 250 250 251 251 252 253 255 256 256 256 256 258 259 260 260 260 259 259 258 256 254 253 252 250 246 244 248 251 249 245 241 241 245 249 251 252 253 256 256 258 258 254 260 252 239 240 242 246 237 219
264 263 263 262 261 260 259 259 258 258 258 257 257 257 257 256 257 257 256 257 257 255 254 254 254 253 254 252 251 251 250 249 250 251 251 250 250 251 251 252 252 253 254 255 255 255 256 257 258 260 260 259 258 257 256 256 255 253 252 249 247 245 242 239 241 246 244 240 238 237 240 243 245 247 249 251 251 253 253 245 241 237 237 238 235 236 234 228
264 263 263 262 261 260 259 259 258 257 257 257 257 256 256 256 256 256 256 256 257 257 254 254 254 254 254 253 252 252 251 249 249 251 252 252 251 251 252 253 253 254 256 256 255 256 257 258 260 259 258 256 255 254 253 252 251 250 250 248 246 244 243 239 237 241 242 240 239 235 234 238 240 242 244 245 247 249 248 245 239 236 244 244 235 230 230 228
265 264 263 263 262 261 260 259 258 257 256 256 256 256 255 255 255 255 255 254 255 256 255 254 254 254 254 254 253 253 251 251 250 250 252 252 252 252 252 253 255 255 255 255 255 256 257 258 258 257 256 255 254 252 250 249 249 250 250 249 248 246 245 242 240 241 243 242 238 232 230 234 236 237 239 240 243 245 244 244 242 239 247 253 245 237 234 229
265 265 264 263 262 262 260 259 259 258 256 256 255 255 255 255 254 253 253 253 252 254 255 254 253 253 254 254 253 253 252 252 252 250 251 253 253 253 253 253 255 255 255 255 255 256 257 258 257 255 254 253 252 251 249 248 248 249 249 248 248 247 244 244 243 242 244 243 239 233 229 233 236 235 236 236 237 241 241 240 240 236 236 248 252 242 238 235
266 265 264 263 262 262 261 260 259 258 257 256 255 255 255 254 254 253 253 252 251 251 253 254 252 252 253 254 253 252 252 251 251 250 250 251 252 252 252 252 253 253 253 253 253 254 254 254 253 252 251 251 251 250 249 248 248 249 249 248 249 248 243 242 242 240 242 244 242 236 232 234 236 235 234 232 233 236 237 236 236 234 233 242 253 245 235 234
266 265 265 264 263 262 262 261 260 259 258 257 256 255 255 254 254 254 253 252 251 250 251 253 252 251 251 252 252 252 250 249 250 250 248 248 249 250 250 250 250 249 250 251 250 250 250 251 252 252 252 254 254 254 254 253 252 251 250 248 247 245 240 239 239 237 241 244 243 238 233 233 235 235 234 232 231 232 233 232 231 233 233 236 248 251 240 234
266 265 265 264 263 262 262 261 260 259 258 257 256 255 254 254 254 253 253 252 251 250 249 251 252 252 250 250 251 251 250 247 248 249 248 247 248 248 248 247 247 247 249 250 249 249 250 252 253 255 256 256 256 257 256 254 253 250 248 245 243 240 236 235 234 233 236 238 239 237 233 231 233 234 234 233 230 229 229 227 227 230 230 227 239 251 245 235
267 266 266 265 264 263 262 261 260 260 259 258 256 255 254 253 253 253 252 252 251 250 248 249 250 251 250 249 249 250 250 248 247 248 247 246 246 246 245 245 246 247 249 249 250 251 252 252 254 257 257 255 254 254 254 252 250 248 246 245 242 240 236 234 232 232 232 230 230 232 229 226 230 231 231 231 229 226 225 223 222 226 226 221 225 239 243 239
269 268 267 266 266 265 264 262 261 260 259 258 257 256 254 253 252 252 251 251 251 249 247 247 248 249 250 250 249 249 250 250 247 247 247 246 246 246 245 246 247 248 249 250 251 252 252 251 253 255 253 251 251 251 250 250 249 248 248 247 243 240 237 233 232 232 229 225 224 225 221 217 222 228 226 227 227 223 222 221 218 223 226 220 216 224 236 237
272 271 270 269 268 267 266 264 263 261 260 258 257 256 254 253 252 251 251 249 249 248 247 246 247 248 249 250 249 248 247 248 247 246 246 245 245 245 245 245 245 246 246 247 247 247 248 248 247 248 249 249 249 248 248 250 250 251 251 250 245 240 238 234 232 230 228 228 227 228 225 217 219 225 222 223 228 223 220 221 219 221 225 221 215 216 228 232
274 273 272 271 270 269 268 267 265 263 262 260 258 257 255 253 252 251 250 248 247 248 247 246 246 246 247 247 247 247 246 245 246 245 245 244 244 244 243 242 242 242 242 242 241 242 244 245 245 246 248 249 248 246 247 249 250 250 250 247 241 236 236 235 232 231 231 233 233 234 232 224 223 226 220 221 228 225 220 219 219 220 221 223 220 217 226 233
276 275 274 273 272 271 270 268 267 265 264 262 259 258 256 254 253 250 249 248 248 247 247 246 244 244 244 244 245 245 245 244 244 244 244 244 243 243 243 242 242 242 242 242 242 243 244 245 245 245 244 244 243 241 242 244 245 245 245 245 240 236 237 236 234 234 235 236 235 235 235 230 228 228 222 222 227 225 221 220 219 220 219 221 222 219 225 230
278 277 276 274 273 272 270 269 268 267 265 263 261 259 257 254 252 250 249 249 249 248 246 245 243 242 241 242 242 243 243 243 242 242 242 243 242 242 242 241 241 240 241 242 242 242 244 245 243 241 241 240 241 240 240 242 244 244 246 247 243 236 236 236 235 237 238 238 237 235 233 231 230 228 223 224 227 225 222 221 221 221 218 217 219 219 220 220
281 280 278 276 275 273 272 270 269 268 266 265 263 261 258 255 252 251 251 251 249 247 245 243 241 240 240 240 240 240 240 241 241 241 240 241 241 240 239 239 239 239 239 240 240 239 241 241 240 241 242 243 243 243 243 244 244 246 248 246 240 234 233 234 236 239 241 241 239 236 232 230 229 227 223 224 227 224 221 222 222 221 217 215 218 218 218 219
283 282 280 279 277 276 274 272 270 268 267 265 264 262 260 257 254 252 251 250 247 245 244 242 241 239 239 238 238 238 239 240 241 241 240 239 239 239 238 237 237 237 237 238 237 237 237 239 239 239 240 241 240 240 241 242 243 246 247 244 240 236 234 236 238 240 241 239 238 235 231 228 228 226 222 222 224 222 220 221 222 222 218 215 218 219 216 218
283 282 280 279 278 276 274 272 269 267 265 263 262 261 259 258 256 253 251 249 246 243 242 242 241 238 238 238 237 236 238 239 239 239 239 238 237 237 237 237 237 237 238 238 239 238 238 239 239 237 237 238 237 237 239 240 242 243 243 243 241 236 232 233 235 235 235 235 235 234 229 226 228 227 222 220 220 218 218 219 222 223 220 217 219 219 217 218
284 283 281 279 278 276 274 271 268 265 262 259 257 256 256 257 256 254 251 248 245 242 240 241 241 239 237 237 237 235 235 237 238 238 238 238 237 236 236 236 236 236 237 239 239 239 238 238 238 237 235 235 236 238 240 241 241 239 239 239 236 229 227 229 230 230 232 235 237 236 232 228 229 229 224 221 219 216 214 215 218 221 220 219 220 220 220 221
287 286 284 281 279 277 274 271 268 265 261 257 254 252 251 252 252 252 250 248 245 243 241 240 240 240 238 237 237 235 233 235 236 236 237 238 238 237 237 237 236 236 236 237 236 236 234 233 236 236 233 235 238 239 240 239 238 236 234 232 227 222 221 224 225 226 228 232 236 236 233 231 232 231 227 224 221 217 214 213 215 218 218 218 220 220 221 222
289 288 286 284 282 279 276 273 269 265 261 258 254 251 248 247 247 247 247 246 245 243 242 240 239 238 238 237 236 234 233 233 234 234 235 237 237 237 237 236 236 236 236 235 233 234 233 230 233 233 231 234 237 235 234 234 233 231 228 224 220 215 215 217 219 219 220 224 231 233 231 230 231 230 226 223 221 218 216 214 214 216 217 218 219 220 221 221
291 290 288 286 284 282 279 275 271 266 262 258 254 250 247 244 242 242 242 242 241 240 240 240 238 236 236 236 235 232 231 232 232 232 234 235 235 235 235 235 234 234 234 234 232 232 231 229 231 233 229 228 231 229 229 231 229 229 227 222 218 214 212 214 214 215 218 223 232 235 233 231 231 229 226 223 220 217 216 214 213 214 216 218 219 219 219 220
292 291 289 287 286 283 280 277 272 268 263 259 255 250 246 242 239 238 237 237 237 236 236 237 237 236 234 234 234 231 229 229 230 231 233 235 234 233 233 233 232 230 230 230 230 230 230 228 230 234 229 225 228 228 228 229 228 227 226 222 219 215 212 212 213 215 220 226 234 239 236 232 233 230 227 225 221 218 216 214 213 213 215 217 218 218 218 218
293 292 289 288 286 284 281 278 274 269 264 260 256 251 246 241 238 235 234 234 234 233 233 233 234 235 234 233 233 231 229 229 229 229 230 232 232 231 231 231 231 229 228 228 229 231 232 229 230 233 229 224 228 231 230 232 230 227 225 221 217 215 212 212 213 215 220 227 234 238 237 233 234 232 227 224 221 218 216 214 213 214 215 217 217 216 217 218
296 294 291 289 287 285 281 278 275 270 265 260 255 251 247 241 236 234 232 231 231 230 230 230 231 232 232 231 230 229 229 228 228 229 229 230 229 228 228 229 229 229 229 229 230 230 230 229 228 231 230 226 228 232 231 231 230 226 223 220 215 213 212 212 212 213 218 224 229 235 236 233 231 232 228 223 219 217 216 215 214 213 215 217 217 217 218 218
298 297 295 292 289 287 283 278 274 270 265 260 255 250 246 241 236 232 230 229 228 228 228 227 227 228 229 229 228 228 227 226 226 228 228 229 228 226 226 227 228 228 228 228 228 228 227 226 225 227 229 225 224 227 226 224 224 222 219 218 214 211 210 211 210 210 214 219 222 229 232 230 228 229 228 224 219 216 215 215 214 213 214 215 217 217 219 218
303 301 300 296 293 290 287 282 276 271 266 260 254 250 245 241 236 232 229 227 227 226 226 225 225 225 226 227 226 226 226 226 226 226 226 226 226 225 225 226 227 227 227 227 227 226 225 225 223 223 225 224 222 224 225 223 221 220 217 215 213 209 207 208 207 207 210 212 216 222 227 229 228 226 226 225 220 216 215 214 214 214 214 215 216 217 219 219
308 305 303 299 296 293 290 286 280 273 268 261 255 249 245 240 236 231 228 226 226 225 224 223 223 223 224 224 224 224 225 226 226 226 225 225 224 223 224 226 226 225 225 225 226 225 224 224 223 221 222 222 221 223 224 221 219 220 217 214 212 207 205 205 205 205 206 207 210 216 221 227 229 226 223 224 223 218 215 215 215 215 215 215 217 217 218 219
313 309 307 304 300 296 292 288 283 276 270 263 256 250 244 240 235 231 228 226 224 224 223 222 221 221 221 221 221 222 223 225 226 225 224 223 223 222 222 224 224 224 224 224 224 224 223 222 222 221 221 222 220 219 220 218 217 219 217 213 211 207 204 205 204 203 202 203 206 212 217 224 230 228 221 220 222 219 216 214 214 215 215 216 217 218 218 219
316 312 310 307 303 300 295 291 287 280 273 266 258 250 244 239 235 231 228 225 224 223 222 222 221 220 220 219 219 220 221 223 225 224 221 220 220 220 220 222 222 222 223 223 222 222 222 221 221 221 221 223 222 220 219 217 215 216 216 212 209 206 204 205 205 203 201 201 205 210 214 220 228 229 222 217 219 217 214 214 213 214 215 215 216 219 219 220
319 314 312 310 306 303 298 293 289 282 276 269 261 252 245 240 235 231 228 226 224 222 222 221 220 219 219 218 217 218 219 221 223 223 220 218 217 218 220 222 222 222 223 223 223 222 222 221 221 220 220 222 221 219 218 217 215 214 214 211 207 206 205 204 204 203 201 202 206 211 214 217 225 229 223 217 217 215 212 213 212 212 214 215 216 218 219 219
323 318 315 312 308 305 301 295 291 285 278 271 264 254 246 240 235 231 228 226 224 222 221 221 220 219 218 217 216 216 217 218 220 221 219 216 216 217 219 221 220 220 221 222 222 223 223 222 221 220 219 219 219 217 215 215 214 213 213 210 206 205 205 204 204 203 203 204 205 210 214 215 221 227 225 218 217 215 212 212 211 210 213 215 216 217 218 220
Height
10973 10974 10974 10975 10975 10975 10976 10976 10976 10976 10977 10977 10978 10978 10979 10980 10981 10981 10982 10982 10983 10983 10984 10984 10984 10984 10985 10985 10986 10986 10986 10986 10986 10987 10987 10987 10987 10988 10988 10989 10989 10989 10989 10990 10991 10991 10992 10993 10994 10995 10996 10998 10999 11000 11001 11001 11002 11002 11002 11003 11003 11001 10999 11000 10999 10998 10998 10996 10995 10995 10994 10993 10992 10990 10989 10988 10987 10987 10986 10986 10987 10987 10986 10988 10987 10984 10984 10984
10970 10970 10971 10972 10972 10972 10973 10973 10973 10974 10974 10975 10975 10976 10977 10978 10978 10979 10979 10979 10980 10981 10982 10982 10982 10982 10983 10984 10984 10984 10985 10985 10985 10986 10986 10986 10986 10987 10987 10987 10988 10988 10989 10989 10989 10990 10991 10992 10993 10994 10995 10996 10997 10998 10999 11000 11000 11000 11001 11002 11002 10999 10998 10999 10998 10998 10997 10995 10994 10993 10993 10992 10990 10988 10986 10985 10984 10984 10983 10983 10983 10983 10983 10983 10983 10981 10980 10980
10966 10967 10967 10968 10969 10969 10969 10970 10970 10971 10971 10972 10972 10973 10974 10975 10976 10976 10976 10977 10977 10978 10979 10980 10980 10980 10981 10981 10982 10983 10983 10983 10983 10984 10985 10985 10985 10986 10986 10986 10986 10987 10987 10988 10988 10989 10990 10990 10991 10992 10993 10994 10995 10996 10997 10998 10998 10998 10999 11000 11000 11000 10999 10998 10998 10997 10995 10994 10992 10991 10991 10990 10988 10986 10984 10983 10982 10981 10981 10980 10980 10979 10980 10981 10980 10978 10976 10976
10962 10963 10964 10964 10965 10965 10966 10966 10967 10967 10968 10968 10969 10970 10971 10972 10973 10973 10973 10973 10974 10975 10976 10977 10978 10978 10978 10979 10980 10980 10981 10981 10981 10982 10983 10983 10983 10984 10984 10984 10985 10985 10986 10986 10987 10987 10988 10989 10989 10990 10991 10992 10993 10994 10995 10996 10996 10996 10997 10998 10998 10999 10999 10997 10997 10995 10993 10992 10990 10989 10989 10988 10987 10985 10983 10982 10980 10979 10979 10978 10977 10977 10978 10978 10977 10975 10974 10973
10958 10959 10960 10960 10961 10961 10962 10962 10963 10963 10964 10965 10965 10966 10967 10968 10970 10970 10970 10971 10971 10971 10973 10974 10975 10975 10975 10976 10977 10977 10978 10979 10979 10980 10980 10981 10981 10982 10982 10983 10983 10983 10984 10985 10985 10985 10986 10987 10987 10988 10989 10990 10991 10992 10993 10993 10994 10994 10995 10996 10996 10996 10997 10996 10994 10993 10992 10990 10989 10987 10987 10986 10985 10983 10982 10981 10980 10978 10977 10976 10975 10975 10975 10974 10973 10973 10971 10970
10954 10955 10956 10956 10957 10957 10958 10958 10959 10959 10960 10960 10961 10962 10963 10964 10966 10967 10967 10967 10968 10968 10969 10970 10971 10972 10972 10972 10973 10974 10975 10976 10977 10977 10978 10978 10979 10980 10980 10981 10980 10981 10981 10983 10983 10984 10984 10984 10985 10986 10986 10987 10988 10989 10990 10991 10992 10992 10992 10993 10993 10993 10993 10993 10992 10991 10990 10988 10987 10986 10985 10984 10983 10982 10980 10979 10978 10976 10975 10974 10973 10973 10972 10971 10971 10970 10968 10968
10950 10951 10951 10952 10952 10953 10953 10954 10955 10955 10956 10956 10957 10958 10959 10960 10961 10962 10963 10964 10964 10964 10965 10966 10967 10968 10969 10969 10969 10971 10972 10973 10974 10974 10974 10975 10976 10977 10978 10978 10978 10978 10979 10980 10981 10982 10982 10982 10983 10983 10984 10984 10985 10986 10987 10989 10989 10989 10990 10990 10990 10990 10990 10990 10989 10988 10987 10986 10984 10984 10983 10982 10980 10979 10978 10977 10975 10974 10973 10972 10971 10970 10970 10970 10968 10967 10967 10967
10946 10946 10947 10947 10948 10948 10948 10949 10950 10950 10951 10951 10953 10953 10954 10955 10956 10958 10959 10959 10960 10961 10961 10962 10963 10964 10965 10965 10965 10967 10968 10970 10971 10971 10971 10971 10972 10973 10974 10975 10975 10976 10976 10977 10978 10979 10979 10979 10980 10980 10981 10981 10981 10982 10984 10985 10986 10986 10987 10987 10988 10987 10987 10986 10986 10985 10984 10983 10982 10981 10980 10980 10978 10977 10976 10974 10973 10972 10971 10970 10970 10969 10968 10967 10966 10965 10965 10966
10941 10941 10942 10942 10943 10943 10943 10944 10945 10945 10946 10947 10948 10948 10949 10950 10951 10953 10954 10955 10956 10957 10957 10958 10959 10960 10961 10961 10961 10962 10964 10966 10968 10968 10968 10967 10968 10969 10970 10972 10972 10973 10973 10974 10975 10975 10976 10977 10977 10978 10978 10978 10977 10979 10981 10981 10982 10983 10984 10984 10985 10985 10984 10983 10983 10982 10982 10981 10980 10979 10979 10978 10977 10975 10974 10972 10971 10970 10969 10968 10968 10968 10966 10964 10964 10963 10963 10965
10936 10936 10937 10937 10937 10937 10938 10939 10940 10940 10941 10942 10942 10943 10944 10945 10946 10947 10948 10949 10950 10952 10953 10954 10954 10955 10956 10957 10957 10957 10959 10962 10964 10964 10964 10964 10964 10965 10966 10967 10969 10969 10970 10971 10972 10972 10973 10974 10975 10975 10974 10974 10974 10975 10977 10977 10978 10980 10981 10982 10982 10982 10982 10981 10980 10979 10979 10979 10979 10978 10977 10976 10975 10974 10972 10970 10970 10968 10967 10966 10966 10966 10964 10963 10962 10961 10962 10963
10930 10931 10931 10932 10932 10931 10932 10933 10934 10935 10936 10936 10937 10937 10938 10939 10940 10942 10943 10944 10945 10947 10948 10949 10950 10951 10952 10952 10953 10952 10954 10958 10960 10960 10960 10960 10961 10961 10962 10963 10964 10966 10966 10967 10969 10969 10970 10971 10972 10971 10970 10970 10971 10972 10973 10973 10974 10976 10978 10979 10979 10979 10979 10979 10978 10977 10977 10977 10977 10976 10975 10975 10974 10972 10970 10969 10968 10967 10966 10965 10964 10963 10962 10961 10961 10960 10960 10961
10924 10925 10925 10926 10926 10925 10926 10927 10928 10929 10930 10931 10931 10932 10932 10933 10934 10936 10937 10938 10939 10941 10942 10944 10945 10946 10947 10948 10949 10948 10948 10953 10955 10955 10956 10956 10957 10958 10959 10959 10960 10961 10962 10963 10964 10966 10967 10968 10968 10967 10966 10967 10967 10968 10968 10969 10970 10973 10975 10976 10976 10977 10977 10977 10976 10975 10975 10975 10975 10974 10974 10973 10972 10971 10970 10968 10967 10966 10964 10963 10962 10961 10960 10960 10960 10959 10959 10959
10918 10919 10919 10920 10920 10919 10920 10921 10922 10923 10924 10925 10925 10926 10926 10927 10928 10930 10931 10932 10934 10935 10937 10939 10939 10942 10942 10943 10945 10943 10944 10948 10949 10951 10951 10951 10953 10954 10955 10956 10956 10957 10957 10959 10960 10962 10963 10964 10964 10964 10964 10964 10964 10964 10963 10965 10967 10968 10971 10973 10973 10974 10975 10975 10974 10973 10972 10972 10973 10972 10972 10972 10971 10970 10969 10968 10966 10964 10963 10962 10961 10960 10960 10960 10960 10959 10959 10958
10911 10912 10913 10913 10913 10912 10913 10914 10916 10917 10918 10919 10919 10919 10920 10921 10922 10923 10925 10926 10928 10929 10931 10933 10934 10936 10936 10939 10941 10938 10938 10943 10944 10946 10947 10947 10948 10949 10951 10952 10952 10952 10953 10954 10956 10957 10958 10960 10961 10962 10961 10960 10961 10960 10959 10962 10962 10964 10967 10969 10970 10971 10973 10973 10972 10971 10970 10971 10971 10970 10970 10970 10970 10969 10968 10968 10965 10963 10962 10962 10961 10960 10961 10961 10960 10960 10960 10959
10904 10905 10906 10906 10907 10906 10906 10907 10908 10910 10911 10912 10912 10913 10914 10915 10916 10917 10918 10920 10921 10923 10924 10926 10928 10930 10930 10934 10936 10932 10934 10937 10939 10941 10942 10942 10943 10944 10946 10947 10947 10948 10949 10949 10951 10952 10953 10955 10957 10958 10958 10957 10958 10956 10956 10959 10958 10959 10962 10964 10966 10968 10970 10970 10969 10970 10969 10969 10969 10968 10968 10969 10969 10968 10967 10967 10965 10963 10963 10961 10960 10960 10960 10960 10960 10960 10960 10960
10897 10897 10898 10899 10900 10899 10899 10900 10901 10902 10903 10904 10905 10906 10906 10908 10909 10910 10912 10913 10914 10916 10918 10920 10921 10923 10925 10927 10930 10929 10928 10931 10934 10936 10935 10937 10939 10939 10940 10942 10943 10943 10944 10945 10945 10947 10948 10950 10952 10954 10954 10954 10954 10951 10953 10956 10953 10954 10956 10959 10962 10964 10967 10966 10966 10968 10967 10967 10967 10966 10966 10967 10968 10968 10967 10966 10965 10964 10963 10962 10960 10961 10961 10960 10960 10960 10961 10961
10889 10890 10890 10891 10892 10891 10891 10892 10893 10893 10895 10896 10897 10898 10899 10900 10901 10903 10905 10906 10907 10908 10910 10912 10914 10916 10917 10920 10924 10924 10922 10925 10929 10928 10929 10932 10934 10934 10935 10936 10938 10939 10939 10939 10940 10941 10943 10945 10947 10949 10950 10951 10950 10949 10952 10952 10948 10949 10951 10954 10958 10960 10963 10963 10962 10965 10965 10964 10964 10963 10964 10965 10965 10966 10966 10965 10965 10965 10964 10964 10961 10961 10962 10961 10959 10960 10961 10961
10880 10881 10882 10883 10884 10884 10883 10884 10885 10885 10886 10888 10888 10889 10890 10892 10893 10895 10896 10897 10899 10900 10903 10905 10906 10908 10910 10913 10917 10917 10916 10919 10922 10921 10924 10927 10928 10928 10930 10931 10933 10934 10934 10933 10935 10937 10938 10940 10942 10944 10945 10946 10946 10946 10947 10944 10943 10946 10946 10949 10954 10956 10960 10959 10958 10960 10962 10962 10962 10961 10962 10962 10962 10964 10965 10964 10964 10964 10964 10965 10963 10963 10964 10962 10959 10959 10962 10962
10871 10872 10873 10874 10875 10875 10874 10875 10876 10876 10877 10878 10880 10880 10881 10883 10885 10887 10888 10888 10891 10892 10895 10898 10897 10900 10904 10904 10908 10911 10910 10911 10914 10917 10918 10920 10921 10922 10924 10926 10926 10928 10928 10928 10929 10931 10933 10935 10937 10938 10939 10940 10941 10941 10940 10938 10941 10944 10942 10945 10949 10952 10955 10953 10952 10955 10958 10959 10960 10961 10960 10960 10960 10961 10963 10963 10963 10963 10963 10963 10964 10964 10963 10961 10959 10959 10960 10962
10860 10862 10864 10864 10866 10867 10866 10866 10867 10867 10868 10869 10870 10871 10872 10873 10875 10879 10879 10878 10883 10884 10887 10890 10888 10892 10896 10895 10900 10904 10902 10903 10908 10910 10912 10913 10914 10916 10918 10919 10920 10921 10921 10922 10924 10926 10928 10930 10930 10931 10933 10935 10936 10937 10935 10935 10938 10940 10939 10941 10944 10947 10950 10949 10948 10950 10953 10956 10958 10959 10958 10958 10958 10959 10961 10962 10962 10961 10961 10961 10963 10963 10962 10960 10960 10959 10959 10961
10850 10851 10852 10853 10855 10857 10856 10857 10858 10858 10858 10859 10860 10862 10863 10863 10865 10870 10870 10869 10873 10875 10878 10881 10880 10883 10886 10887 10892 10895 10896 10898 10900 10902 10905 10907 10907 10910 10912 10912 10913 10914 10913 10916 10919 10921 10923 10922 10922 10925 10928 10930 10932 10933 10932 10932 10934 10934 10934 10936 10938 10942 10945 10946 10944 10944 10948 10952 10955 10957 10956 10956 10956 10958 10959 10960 10960 10960 10960 10960 10960 10961 10961 10960 10960 10961 10960 10960
10838 10838 10840 10841 10843 10845 10845 10846 10847 10848 10848 10849 10850 10852 10854 10854 10855 10859 10862 10861 10862 10866 10869 10870 10873 10873 10873 10880 10883 10884 10891 10892 10891 10894 10896 10899 10902 10903 10903 10905 10907 10906 10907 10913 10915 10915 10915 10912 10915 10921 10924 10925 10927 10928 10927 10927 10928 10928 10929 10931 10933 10935 10938 10940 10939 10939 10942 10947 10950 10953 10954 10953 10954 10955 10957 10958 10958 10958 10959 10960 10959 10959 10960 10959 10960 10962 10960 10960
10826 10825 10826 10827 10829 10832 10833 10834 10836 10836 10837 10839 10840 10841 10843 10845 10846 10848 10852 10853 10850 10855 10861 10859 10863 10864 10862 10870 10874 10875 10884 10885 10883 10886 10887 10891 10896 10895 10896 10899 10898 10898 10903 10908 10907 10907 10906 10905 10911 10917 10918 10920 10921 10922 10922 10922 10923 10922 10923 10926 10928 10928 10930 10934 10935 10932 10935 10940 10945 10949 10951 10951 10951 10952 10954 10956 10956 10957 10957 10959 10959 10959 10960 10960 10960 10960 10959 10960
10813 10813 10813 10814 10815 10817 10820 10820 10822 10824 10825 10827 10828 10829 10831 10833 10836 10837 10841 10845 10842 10842 10848 10850 10852 10854 10853 10858 10865 10868 10873 10874 10877 10879 10878 10883 10887 10887 10890 10890 10889 10894 10899 10899 10899 10900 10899 10901 10908 10911 10911 10913 10915 10916 10917 10916 10917 10916 10917 10921 10922 10922 10926 10929 10929 10927 10929 10935 10940 10943 10946 10948 10949 10950 10951 10954 10955 10955 10956 10957 10957 10957 10958 10959 10958 10958 10957 10960
10799 10799 10799 10800 10801 10803 10806 10806 10808 10811 10813 10814 10815 10817 10819 10821 10824 10827 10829 10834 10835 10829 10833 10840 10842 10842 10843 10847 10856 10859 10860 10864 10870 10872 10870 10873 10877 10879 10881 10881 10883 10889 10890 10889 10891 10893 10893 10897 10901 10903 10904 10907 10909 10911 10911 10911 10911 10911 10913 10916 10916 10919 10923 10924 10924 10925 10927 10930 10933 10937 10942 10945 10945 10946 10948 10951 10952 10953 10954 10955 10955 10955 10956 10957 10957 10956 10955 10958
10785 10785 10786 10787 10786 10787 10791 10793 10794 10796 10798 10801 10804 10804 10806 10809 10812 10815 10817 10821 10825 10820 10819 10827 10831 10832 10833 10838 10844 10845 10849 10858 10860 10861 10864 10865 10867 10870 10872 10875 10878 10880 10880 10880 10885 10888 10888 10891 10893 10895 10898 10900 10903 10904 10904 10905 10907 10907 10909 10911 10912 10916 10920 10919 10920 10924 10924 10923 10927 10934 10939 10940 10941 10943 10945 10947 10949 10950 10952 10953 10953 10954 10955 10956 10956 10955 10955 10957
10770 10770 10770 10772 10773 10773 10774 10778 10780 10781 10784 10787 10791 10792 10793 10796 10798 10802 10806 10807 10809 10812 10811 10812 10818 10824 10825 10827 10831 10832 10842 10849 10845 10850 10858 10856 10857 10861 10864 10868 10870 10871 10871 10872 10880 10884 10880 10882 10885 10887 10890 10895 10896 10896 10897 10901 10903 10903 10904 10907 10909 10911 10914 10914 10915 10919 10919 10917 10923 10932 10936 10936 10938 10940 10940 10942 10945 10947 10949 10950 10951 10952 10953 10954 10954 10955 10956 10957
10755 10754 10755 10755 10758 10759 10759 10762 10764 10766 10770 10772 10776 10780 10781 10784 10786 10787 10791 10792 10794 10802 10804 10800 10804 10814 10817 10817 10818 10820 10832 10837 10833 10840 10847 10846 10848 10852 10856 10861 10862 10862 10861 10865 10875 10874 10871 10877 10878 10878 10886 10891 10889 10890 10894 10898 10899 10898 10900 10904 10904 10905 10908 10909 10910 10915 10913 10913 10921 10928 10930 10931 10932 10933 10935 10938 10941 10943 10945 10947 10949 10950 10951 10952 10953 10953 10955 10956
10740 10740 10740 10739 10741 10743 10744 10746 10748 10750 10754 10757 10761 10765 10767 10771 10773 10773 10775 10777 10780 10788 10794 10792 10793 10799 10805 10808 10806 10807 10818 10825 10825 10829 10836 10838 10840 10843 10849 10851 10851 10852 10855 10860 10866 10864 10867 10873 10871 10873 10883 10885 10882 10885 10891 10893 10892 10892 10895 10898 10898 10900 10902 10903 10906 10908 10907 10911 10918 10921 10922 10925 10926 10927 10931 10934 10936 10939 10941 10943 10946 10947 10949 10951 10952 10954 10954 10956
10726 10725 10724 10725 10725 10727 10729 10731 10733 10734 10737 10741 10744 10748 10753 10756 10758 10758 10760 10763 10766 10773 10781 10782 10783 10786 10789 10795 10796 10797 10804 10812 10817 10820 10823 10828 10829 10832 10839 10840 10842 10847 10850 10854 10858 10859 10863 10866 10866 10871 10876 10875 10877 10882 10885 10885 10884 10887 10890 10891 10893 10896 10898 10899 10902 10902 10904 10910 10911 10910 10913 10917 10919 10922 10927 10929 10930 10933 10937 10940 10943 10946 10947 10948 10950 10954 10956 10957
10711 10710 10710 10711 10710 10711 10714 10715 10717 10720 10721 10724 10727 10732 10737 10739 10742 10743 10746 10750 10749 10753 10764 10770 10774 10776 10776 10781 10786 10790 10793 10797 10806 10810 10811 10817 10820 10823 10831 10834 10838 10842 10844 10849 10853 10852 10854 10859 10863 10867 10865 10866 10872 10877 10878 10877 10879 10882 10885 10886 10890 10892 10893 10895 10897 10898 10902 10902 10897 10897 10903 10908 10912 10915 10919 10921 10922 10928 10934 10937 10940 10943 10945 10946 10947 10951 10954 10957
10696 10695 10695 10696 10695 10697 10698 10699 10701 10704 10706 10709 10711 10715 10719 10722 10727 10729 10731 10732 10727 10733 10751 10761 10766 10768 10768 10770 10772 10777 10782 10784 10791 10798 10800 10806 10809 10814 10823 10827 10829 10834 10837 10842 10842 10841 10845 10850 10855 10857 10856 10860 10868 10872 10872 10871 10874 10879 10880 10882 10886 10888 10889 10891 10892 10893 10895 10892 10890 10893 10899 10906 10907 10904 10910 10917 10919 10925 10931 10934 10937 10939 10942 10944 10944 10947 10951 10954
10681 10680 10680 10679 10679 10680 10681 10682 10685 10686 10690 10694 10695 10698 10702 10704 10711 10714 10710 10706 10708 10724 10742 10749 10755 10758 10757 10757 10755 10760 10769 10771 10777 10784 10788 10794 10799 10804 10811 10814 10818 10824 10827 10828 10829 10832 10836 10841 10848 10852 10852 10856 10862 10866 10867 10867 10870 10874 10875 10877 10881 10883 10884 10885 10887 10888 10888 10888 10890 10894 10899 10905 10901 10898 10909 10916 10916 10922 10928 10930 10933 10936 10938 10941 10942 10944 10948 10950
10665 10664 10662 10662 10662 10662 10663 10664 10666 10668 10671 10675 10678 10682 10684 10688 10695 10693 10684 10685 10702 10721 10729 10734 10742 10743 10741 10740 10740 10746 10754 10758 10766 10772 10776 10782 10789 10795 10801 10805 10811 10816 10816 10817 10823 10828 10830 10837 10846 10847 10846 10850 10855 10859 10860 10860 10863 10867 10869 10871 10876 10879 10880 10881 10882 10883 10884 10886 10890 10894 10896 10897 10895 10898 10909 10913 10912 10918 10924 10927 10930 10933 10936 10939 10940 10942 10944 10945
10648 10646 10644 10644 10644 10644 10645 10646 10647 10650 10652 10655 10659 10662 10667 10672 10673 10666 10663 10678 10699 10710 10714 10720 10722 10721 10724 10726 10727 10734 10740 10743 10752 10760 10764 10770 10778 10785 10791 10795 10800 10804 10806 10810 10817 10822 10826 10833 10837 10835 10836 10842 10847 10851 10852 10854 10859 10862 10865 10869 10874 10875 10875 10877 10878 10879 10881 10884 10887 10888 10888 10890 10892 10898 10905 10908 10909 10915 10921 10924 10927 10930 10933 10936 10937 10938 10940 10941
10630 10627 10623 10623 10624 10625 10626 10628 10629 10631 10633 10636 10638 10642 10647 10649 10648 10646 10654 10673 10688 10695 10699 10699 10696 10701 10708 10708 10712 10722 10724 10725 10736 10747 10753 10759 10765 10772 10778 10782 10788 10792 10797 10802 10809 10815 10820 10824 10826 10826 10831 10838 10842 10844 10847 10851 10855 10858 10862 10865 10867 10869 10871 10874 10875 10876 10878 10880 10881 10881 10882 10885 10889 10892 10898 10902 10905 10911 10918 10921 10924 10927 10930 10933 10934 10935 10936 10938
10610 10607 10602 10599 10600 10603 10605 10608 10609 10611 10613 10614 10616 10621 10623 10622 10625 10633 10644 10658 10671 10680 10679 10672 10675 10686 10691 10691 10697 10706 10709 10715 10727 10735 10740 10747 10751 10756 10764 10770 10774 10780 10787 10792 10798 10807 10812 10814 10818 10821 10825 10831 10835 10836 10840 10846 10850 10855 10859 10860 10862 10867 10871 10872 10872 10874 10875 10874 10874 10875 10878 10882 10884 10886 10890 10895 10900 10908 10914 10918 10920 10923 10927 10930 10931 10932 10933 10935
10590 10587 10581 10576 10576 10578 10581 10584 10586 10588 10591 10592 10594 10597 10597 10597 10605 10617 10631 10643 10652 10660 10656 10651 10660 10670 10673 10674 10680 10693 10704 10708 10712 10717 10725 10732 10735 10740 10750 10757 10763 10773 10779 10783 10791 10801 10807 10807 10811 10816 10817 10822 10826 10828 10834 10842 10847 10852 10854 10855 10861 10866 10868 10868 10868 10869 10869 10868 10868 10869 10874 10878 10878 10878 10884 10889 10896 10902 10908 10913 10916 10919 10923 10927 10928 10930 10931 10932
10568 10564 10558 10554 10552 10554 10555 10557 10558 10561 10565 10567 10569 10571 10573 10577 10586 10598 10613 10622 10627 10634 10636 10636 10642 10650 10657 10659 10664 10684 10697 10691 10694 10707 10712 10712 10716 10726 10738 10745 10756 10767 10771 10777 10787 10795 10799 10799 10801 10808 10810 10811 10816 10823 10833 10841 10844 10847 10850 10853 10859 10863 10863 10864 10863 10863 10864 10863 10863 10866 10871 10874 10872 10875 10882 10887 10892 10897 10902 10907 10911 10915 10919 10922 10924 10927 10930 10931
10545 10540 10534 10530 10529 10530 10532 10531 10532 10534 10536 10538 10542 10547 10552 10558 10565 10575 10588 10596 10604 10613 10619 10622 10626 10634 10642 10644 10651 10673 10681 10674 10685 10699 10694 10691 10702 10716 10728 10737 10749 10760 10764 10772 10780 10781 10786 10790 10790 10798 10802 10801 10811 10825 10832 10836 10837 10841 10845 10849 10854 10858 10859 10859 10859 10860 10860 10859 10859 10862 10867 10870 10871 10875 10881 10885 10888 10893 10897 10902 10906 10910 10914 10917 10921 10924 10926 10929
10524 10519 10513 10510 10509 10509 10510 10509 10509 10511 10511 10513 10517 10522 10529 10536 10543 10552 10563 10574 10585 10594 10599 10604 10610 10618 10625 10629 10640 10659 10663 10663 10675 10682 10675 10678 10692 10706 10719 10731 10744 10753 10756 10763 10766 10765 10774 10781 10779 10787 10798 10800 10809 10821 10822 10825 10830 10833 10839 10843 10847 10851 10853 10854 10856 10856 10855 10854 10854 10858 10864 10868 10870 10873 10877 10880 10883 10889 10893 10898 10902 10906 10910 10913 10916 10920 10922 10925
10507 10502 10495 10492 10491 10491 10491 10490 10491 10492 10492 10493 10496 10500 10506 10513 10521 10530 10540 10551 10562 10569 10576 10583 10590 10599 10607 10612 10625 10640 10647 10651 10661 10664 10660 10665 10678 10695 10711 10723 10734 10742 10745 10751 10753 10751 10761 10771 10770 10779 10793 10795 10799 10807 10811 10816 10822 10826 10832 10837 10840 10844 10848 10851 10852 10851 10851 10851 10851 10856 10863 10865 10866 10868 10872 10875 10879 10883 10888 10893 10898 10901 10904 10907 10911 10914 10917 10920
10492 10489 10482 10477 10476 10476 10475 10474 10474 10475 10476 10477 10478 10481 10486 10493 10500 10509 10518 10527 10536 10545 10554 10562 10569 10578 10589 10597 10608 10623 10632 10638 10644 10649 10651 10655 10669 10690 10704 10710 10719 10728 10731 10733 10734 10735 10747 10763 10765 10771 10785 10787 10786 10795 10802 10808 10815 10821 10827 10833 10837 10841 10845 10847 10848 10848 10848 10848 10849 10855 10859 10860 10862 10865 10869 10871 10875 10879 10883 10887 10891 10894 10897 10900 10904 10908 10912 10916
10479 10477 10471 10465 10464 10463 10461 10460 10459 10460 10461 10462 10463 10465 10470 10476 10482 10490 10498 10505 10514 10524 10533 10542 10550 10561 10574 10585 10597 10611 10621 10627 10632 10636 10637 10641 10659 10681 10691 10695 10703 10711 10714 10716 10722 10731 10746 10759 10759 10760 10773 10779 10778 10787 10796 10803 10812 10819 10823 10828 10833 10837 10840 10843 10844 10846 10846 10846 10848 10851 10853 10857 10860 10861 10864 10867 10870 10874 10877 10881 10885 10889 10892 10894 10897 10903 10908 10910
10468 10465 10459 10455 10453 10451 10449 10448 10447 10447 10448 10449 10450 10452 10455 10461 10467 10473 10480 10487 10496 10504 10513 10524 10535 10545 10557 10570 10583 10596 10605 10612 10617 10617 10618 10629 10649 10668 10675 10679 10688 10695 10702 10710 10720 10730 10741 10748 10749 10753 10766 10776 10777 10783 10794 10801 10808 10814 10817 10822 10827 10831 10835 10839 10842 10844 10844 10844 10846 10847 10849 10854 10856 10856 10858 10862 10865 10869 10873 10876 10880 10884 10887 10889 10894 10899 10901 10903
10458 10455 10449 10444 10442 10440 10438 10438 10436 10435 10436 10438 10439 10440 10443 10448 10453 10458 10463 10469 10477 10484 10493 10506 10517 10526 10538 10552 10567 10579 10587 10595 10598 10599 10608 10623 10639 10652 10659 10666 10675 10685 10695 10703 10710 10719 10727 10733 10741 10749 10759 10767 10769 10772 10782 10791 10798 10805 10811 10816 10821 10826 10830 10834 10838 10841 10841 10841 10843 10843 10845 10848 10850 10850 10853 10857 10861 10865 10868 10871 10874 10878 10881 10885 10890 10893 10895 10899
10448 10446 10441 10435 10432 10430 10427 10428 10427 10425 10425 10427 10428 10429 10432 10435 10440 10445 10450 10455 10461 10468 10477 10489 10499 10508 10521 10536 10551 10564 10572 10577 10579 10584 10596 10610 10624 10640 10652 10659 10667 10677 10684 10689 10696 10707 10715 10722 10733 10742 10746 10752 10758 10764 10774 10785 10792 10798 10803 10808 10814 10820 10824 10829 10835 10837 10836 10838 10839 10839 10840 10843 10845 10846 10849 10852 10857 10861 10863 10866 10870 10873 10877 10882 10885 10888 10892 10897
10439 10436 10434 10428 10425 10422 10418 10417 10418 10417 10416 10417 10418 10420 10422 10425 10428 10433 10438 10442 10448 10454 10463 10473 10483 10492 10505 10519 10534 10548 10556 10560 10565 10574 10587 10601 10617 10636 10647 10650 10656 10664 10669 10676 10685 10696 10706 10715 10725 10731 10733 10740 10751 10760 10770 10780 10785 10789 10795 10802 10808 10814 10820 10825 10828 10830 10831 10833 10834 10835 10837 10839 10840 10842 10846 10849 10853 10857 10860 10863 10866 10869 10873 10877 10880 10884 10888 10890
10431 10427 10425 10421 10417 10415 10411 10409 10409 10409 10408 10408 10410 10411 10413 10415 10418 10422 10427 10431 10436 10442 10449 10458 10467 10477 10488 10502 10518 10532 10540 10545 10552 10563 10579 10596 10614 10629 10634 10633 10637 10646 10655 10665 10676 10688 10700 10707 10711 10716 10722 10730 10743 10755 10763 10771 10778 10783 10790 10797 10803 10809 10815 10818 10821 10823 10825 10828 10830 10831 10833 10835 10836 10838 10842 10846 10849 10853 10857 10860 10862 10865 10868 10872 10876 10879 10882 10885
10426 10420 10417 10413 10410 10408 10405 10402 10401 10401 10400 10401 10402 10403 10404 10406 10409 10413 10417 10421 10426 10431 10437 10445 10454 10463 10474 10488 10503 10515 10524 10532 10540 10553 10571 10589 10604 10612 10612 10611 10620 10633 10646 10657 10668 10680 10687 10690 10696 10709 10719 10728 10741 10751 10756 10763 10771 10776 10782 10789 10796 10803 10808 10811 10815 10818 10821 10824 10826 10827 10829 10831 10832 10834 10838 10843 10846 10849 10852 10854 10857 10861 10864 10867 10871 10874 10878 10883
10421 10415 10411 10407 10403 10401 10399 10396 10395 10394 10394 10394 10394 10395 10396 10398 10401 10404 10408 10412 10416 10421 10427 10434 10442 10451 10461 10473 10486 10497 10507 10518 10530 10545 10563 10578 10590 10595 10597 10604 10618 10635 10645 10654 10664 10671 10673 10680 10695 10708 10717 10725 10735 10743 10750 10757 10762 10766 10773 10783 10791 10797 10801 10805 10809 10813 10816 10820 10822 10824 10827 10828 10828 10829 10834 10839 10842 10845 10847 10850 10853 10857 10859 10862 10866 10870 10874 10878
10416 10410 10406 10402 10398 10396 10394 10390 10389 10388 10388 10387 10388 10389 10390 10392 10394 10396 10399 10403 10408 10412 10417 10423 10431 10440 10449 10460 10470 10481 10494 10506 10519 10533 10550 10565 10577 10585 10592 10601 10616 10629 10637 10646 10656 10660 10664 10678 10693 10701 10708 10717 10723 10733 10741 10744 10749 10760 10771 10778 10783 10788 10794 10799 10803 10807 10811 10815 10819 10821 10822 10823 10824 10826 10830 10836 10839 10841 10843 10846 10850 10853 10856 10859 10863 10866 10870 10873